Location: Eastview
(35.0756°N, 88.5453°W)
Time: 21:19:23
(UTC+00:00)

Cosmos 1328 Rocket - Pass Details

Date: 22 November 2019
Orbit: 600 x 628 km, 82.5° (Epoch: 08 December)

Event Time Altitude Azimuth Distance (km) Brightness Sun altitude
Rises 23:03:41 0° 175° (S) 2,891 7.2 -4.4°
Reaches altitude 10° 23:05:56 10° 171° (S) 1,985 6.3 -4.8°
Maximum altitude 23:10:14 56° 94° (E) 741 3.7 -5.6°
Drops below altitude 10° 23:14:32 10° 16° (NNE) 1,984 5.8 -6.4°
Sets 23:16:47 0° 12° (NNE) 2,888 6.7 -6.9°
